sat.trackr.live / text

‹ back to catalog

2025-055A

NORAD 63291 · 2025-055A

PAYLOAD ACTIVE UNKNOWN

§ Identity

Operator
Country
PRC
Launch date
2025-03-17
Launch site
JSC
Launch vehicle
Mass (kg)
RCS (m²)

External: N2YO · Heavens-Above · Gunter

§ Orbital elements

Epoch: 2026-05-25T04:24:24.367104Z

Period
94.97 min
Inclination
97.6503°
Eccentricity
0.0015030
Mean motion
15.16238460 rev/d
Perigee alt
506.9 km
Apogee alt
527.6 km
Semi-major
6,895.4 km
B*
4.2891e-4
RAAN
284.8832°
Arg perigee
218.5467°
Mean anomaly
141.4694°
Rev number
6,556

§ Raw data

2025-055A1 63291U 25055A   26145.18361536  .00008250  00000+0  42891-3 0  99902 63291  97.6503 284.8832 0015030 218.5467 141.4694 15.16238460 65567

JSON: /api/v1/satellites/63291 · /tle

For live sub-satellite position, see the globe view (requires WebGL).

§ Visibility from observer

Set your observer location to see the next 7 days of passes ≥ 10°. The values pass through the URL so the page stays shareable.

No JS? Fill the form by hand. The geolocation button needs JavaScript.